Regional Weather Roundup
Issued by NWS

Home | Current Version | Previous Version | Text Only | Print | Product List | Glossary Off
Versions: 1 2 3 4 5 6 7 8 9 10 11 12 13 14 15 16 17 18 19 20 21 22 23 24 25 26 27 28 29 30 31 32 33 34 35 36 37 38 39 40 41 42 43 44 45 46 47 48 49 50

000
ASUS43 KIND 261559
RWRIN

WEATHER ROUNDUP FOR INDIANA
NATIONAL WEATHER SERVICE INDIANAPOLIS IN
1200 PM EDT WED APR 26 2017

NOTE: "FAIR" INDICATES FEW OR NO CLOUDS BELOW 12,000 FEET WITH NO
SIGNIFICANT WEATHER AND/OR OBSTRUCTIONS TO VISIBILITY.

* - STATION DOES NOT REPORT WEATHER SUCH AS PRECIPITATION OR FOG.

+ - STATION NOT QUALITY CONTROLLED BY THE NATIONAL WEATHER SERVICE.
    USE DATA WITH CAUTION...ESPECIALLY DEWPOINT AND RELATIVE
    HUMIDITY OBSERVATIONS.

INZ001>003-010>013-019-020-261700-
NORTHWEST INDIANA

CITY           SKY/WX    TMP DP  RH WIND       PRES   REMARKS
GARY /AIRPORT/ MOSUNNY   75  55  50 S16G28    29.44S
KNOX *+        FAIR      75  32  20 SE25G32   29.47S
MONTICELLO +   FAIR      73  58  57 S18       29.49S

$$

LMZ046-743>745-261700-
SOUTHERN LAKE MICHIGAN

STATION/POSITION TIME  TEMP    WIND        PRES    WAVE
                       AIR SEA DIR/SP/G            HT
                 (UTC) (F)     (DEG/KT/KT) (MB)    (FT)
BURNS HARBOR     1540   73     190/ 20/ 24  997.3S
MICHIGAN CITY    1530   72     150/ 18/ 22   N/A
5NW MICH CITY    1550   65 49                N/A     2

$$

INZ004-005-014>016-021>024-261700-
NORTH CENTRAL INDIANA

CITY           SKY/WX    TMP DP  RH WIND       PRES   REMARKS
ELKHART        FAIR      73  57  56 S10       29.49F
GOSHEN         FAIR      73  57  57 SE21      29.51F
SOUTH BEND     FAIR      74  59  59 S21G31    29.48F

$$

INZ006>009-017-018-025>027-261700-
NORTHEAST INDIANA

CITY           SKY/WX    TMP DP  RH WIND       PRES   REMARKS
ANGOLA *+      SUNNY     72  64  78 S16       29.56F
FORT WAYNE     FAIR      78  58  49 S17G23    29.58F
KENDALLVILLE + FAIR      73  59  62 S15G21    29.56F

$$

INZ028-029-035-036-043>045-051>053-261700-
WEST CENTRAL INDIANA

CITY           SKY/WX    TMP DP  RH WIND       PRES   REMARKS
CRAWFORDSVL +  FAIR      75  59  57 S20       29.53R
LAFAYETTE      FAIR      75  60  59 S15G24    29.49R
TERRE HAUTE    FAIR      76  58  53 S17       29.55R

$$

INZ030>032-037>040-046>048-054>057-064-065-261700-
CENTRAL INDIANA

CITY           SKY/WX    TMP DP  RH WIND       PRES   REMARKS
INDIANAPOLIS   FAIR      74  60  61 S16G23    29.57F
-EAGLE CREEK   FAIR      74  59  59 S14G21    29.56F
KOKOMO +       FAIR      75  60  59 S21G28    29.56F
SHELBYVILLE    FAIR      77  58  51 S18       29.62S

$$

INZ033-034-041-042-049-050-058-059-261700-
EAST CENTRAL INDIANA

CITY           SKY/WX    TMP DP  RH WIND       PRES   REMARKS
MUNCIE         FAIR      77  58  51 S17G24    29.60F
RICHMOND +     FAIR      73  55  53 S15G21    29.67F

$$

INZ060-061-067>069-081>083-085>088-261700-
SOUTHWEST INDIANA

CITY           SKY/WX    TMP DP  RH WIND       PRES   REMARKS
EVANSVILLE     FAIR      77  60  55 S13       29.61S
HUNTINGBURG *+ FAIR      75  62  64 S13G21    29.62F

$$

INZ062-063-066-070>080-084-089>092-261700-
SOUTH CENTRAL AND SOUTHEAST INDIANA

CITY           SKY/WX    TMP DP  RH WIND       PRES   REMARKS
BLOOMINGTON    FAIR      75  59  57 S16G24    29.58F
MADISON *+     FAIR      73  59  60 S13       29.68F
SEYMOUR +      FAIR      77  59  53 S15       29.63F

$$




USA.gov is the U.S. government's official web portal to all federal, state and local government web resources and services.